Fes-Sais, Morocco

5:19 PM WEST on September 25, 2016 (GMT +0100)
Saiss

Weather History for GMFF - November, 2011

Change the Weather History Date:

Saturday, November 26, 2011

  Actual Average Record
Temperature  
Mean Temperature 54 °F -  
Max Temperature 65 °F 62 °F 72 °F (2012)
Min Temperature 44 °F 42 °F 33 °F (1999)
Degree Days  
Heating Degree Days 10    
Growing Degree Days 4 (Base 50)    
Moisture  
Dew Point 45 °F    
Average Humidity 71    
Maximum Humidity 87    
Minimum Humidity 36    
Precipitation  
Precipitation 0.00 in - - ()
Sea Level Pressure  
Sea Level Pressure 30.25 in    
Wind  
Wind Speed 5 mph ()    
Max Wind Speed 14 mph    
Max Gust Speed -    
Visibility 6.1 miles    
Events      
Averages and records for this station are not official NWS values.
T = Trace of Precipitation, MM = Missing Value Source: Averaged Metar Reports

Daily Weather History Graph

Daily Weather History Graph

Search for Another Location

Airport or City:

Trip Planner

Search our weather history database for the weather conditions in past years. The results will help you decide how hot, cold, wet, or windy it might be!

Date:

Astronomy

Nov. 26, 2011 Rise Set
Actual Time 7:02 AM WET 5:11 PM WET
Civil Twilight 6:35 AM WET 5:38 PM WET
Nautical Twilight 6:04 AM WET 6:09 PM WET
Astronomical Twilight 5:34 AM WET 6:39 PM WET
Moon 8:16 AM WET (11/26) 6:30 PM WET (11/26)
Length of Visible Light 11h 03m
Length of Day
10h 09m
New Moon, 2% of the Moon is Illuminated
Nov 26
New Moon
Dec 2
First Quarter
Dec 10
Full
Dec 18
Last Quarter
Dec 24
New

Hourly Weather History & Observations

Time (WET) Temp. Dew Point Humidity Pressure Visibility Wind Dir Wind Speed Gust Speed Precip Events Conditions
12:00 AM 48.2 °F 41.0 °F 76% 30.27 in - Calm Calm - N/A   Clear
2:00 AM 50.0 °F 44.6 °F 82% 30.27 in - ESE 9.2 mph - N/A   Clear
3:00 AM 49 °F 45 °F 82% 30.28 in 6 mi East 8.1 mph - -  
3:00 AM 50.0 °F 44.6 °F 82% 30.24 in - East 8.1 mph - N/A   Clear
4:00 AM 50.0 °F 44.6 °F 82% 30.24 in - ENE 6.9 mph - N/A   Clear
5:00 AM 46.4 °F 42.8 °F 87% 30.27 in - Calm Calm - N/A   Clear
6:00 AM 45 °F 42 °F 83% 30.30 in 6 mi Calm Calm - -  
6:00 AM 44.6 °F 41.0 °F 87% 30.27 in - Calm Calm - N/A   Clear
7:00 AM 44.6 °F 41.0 °F 87% 30.27 in 6.2 mi Calm Calm - N/A   Partly Cloudy
8:00 AM 46.4 °F 42.8 °F 87% 30.27 in 6.2 mi Calm Calm - N/A   Partly Cloudy
9:00 AM 55 °F 45 °F 59% 30.29 in 6 mi Calm Calm - -   Scattered Clouds
9:00 AM 55.4 °F 44.6 °F 67% 30.30 in 6.2 mi Calm Calm - N/A   Partly Cloudy
10:00 AM 57.2 °F 46.4 °F 67% 30.30 in 6.2 mi Calm Calm - N/A   Scattered Clouds
11:00 AM 59.0 °F 48.2 °F 67% 30.30 in 6.2 mi East 11.5 mph - N/A   Scattered Clouds
12:00 PM 63 °F 46 °F 44% 30.24 in 6 mi East 13.8 mph - -   Partly Cloudy
12:00 PM 62.6 °F 44.6 °F 52% 30.27 in 6.2 mi East 13.8 mph - N/A   Scattered Clouds
1:00 PM 64.4 °F 46.4 °F 52% 30.24 in 6.2 mi ENE 11.5 mph - N/A   Scattered Clouds
2:00 PM 62.6 °F 46.4 °F 55% 30.24 in 6.2 mi ENE 11.5 mph - N/A   Scattered Clouds
3:00 PM 64 °F 44 °F 36% 30.19 in 6 mi ENE 10.4 mph - -   Mostly Cloudy
3:00 PM 64.4 °F 44.6 °F 49% 30.21 in 6.2 mi ENE 11.5 mph - N/A   Scattered Clouds
4:00 PM 60.8 °F 48.2 °F 63% 30.21 in 6.2 mi NNE 11.5 mph - N/A   Scattered Clouds
5:00 PM 57.2 °F 48.2 °F 72% 30.21 in 6.2 mi NNE 6.9 mph - N/A   Scattered Clouds
6:00 PM 54 °F 48 °F 72% 30.23 in 6 mi NE 4.6 mph - -   Partly Cloudy
6:00 PM 53.6 °F 48.2 °F 82% 30.24 in 6.2 mi NE 4.6 mph - N/A   Scattered Clouds
7:00 PM 51.8 °F 46.4 °F 82% 30.24 in 6.2 mi Calm Calm - N/A   Scattered Clouds
8:00 PM 51.8 °F 46.4 °F 82% 30.24 in 6.2 mi East 3.5 mph - N/A   Scattered Clouds
9:00 PM 53 °F 43 °F 61% 30.26 in 6 mi East 8.1 mph - -   Partly Cloudy
9:00 PM 53.6 °F 42.8 °F 67% - 6.2 mi East 8.1 mph - N/A   Scattered Clouds
10:00 PM 50.0 °F 42.8 °F 76% 30.24 in 6.2 mi East 4.6 mph - N/A   Scattered Clouds
11:00 PM 51.8 °F 44.6 °F 76% 30.24 in 6.2 mi NE 5.8 mph - N/A   Scattered Clouds